QPF
0.00 0.00 0.00 0.00 0.00 0.00 0.00 0.00 0.00 0.00 0.00 0.00 0.00 0.00 0.00 0.00 0.00 0.00 0.00 0.00 0.00 0.00 0.00 0.00 0.00 0.00 0.00 0.00 0.00 0.00 0.00 0.00 0.00 0.00 0.00 0.00 0.00 0.00 0.00 0.00 0.00 0.00 0.00 0.00
0.10 0.07 0.03 0.04 0.01 0.00 0.00 0.00 0.00 0.00 0.00 0.00 0.00 0.00 0.00 0.00 0.00 0.00 0.00 0.00 0.00 0.00 0.00 0.00 0.00 0.00 0.00 0.00 0.00 0.00 0.00 0.00 0.00 0.00 0.00 0.00 0.00 0.00 0.00 0.00 0.00 0.00 0.00 0.00
0.22 0.17 0.11 0.10 0.05 0.01 0.02 0.02 0.01 0.00 0.00 0.00 0.00 0.00 0.00 0.00 0.00 0.00 0.00 0.00 0.00 0.00 0.00 0.00 0.00 0.00 0.00 0.00 0.00 0.00 0.00 0.00 0.00 0.00 0.00 0.00 0.00 0.00 0.00 0.00 0.00 0.00 0.00 0.00
0.15 0.12 0.10 0.14 0.14 0.08 0.07 0.08 0.05 0.01 0.00 0.00 0.00 0.00 0.00 0.00 0.00 0.00 0.00 0.00 0.00 0.00 0.00 0.00 0.00 0.00 0.00 0.00 0.00 0.00 0.00 0.00 0.00 0.00 0.00 0.00 0.00 0.00 0.00 0.00 0.00 0.00 0.00 0.00
0.05 0.06 0.11 0.22 0.22 0.14 0.15 0.14 0.08 0.04 0.03 0.02 0.02 0.02 0.01 0.01 0.00 0.00 0.00 0.00 0.00 0.00 0.00 0.00 0.00 0.00 0.00 0.00 0.00 0.00 0.00 0.00 0.00 0.00 0.00 0.00 0.00 0.00 0.00 0.00 0.00 0.00 0.00 0.00
0.00 0.01 0.03 0.13 0.13 0.14 0.15 0.11 0.09 0.12 0.13 0.03 0.03 0.03 0.02 0.02 0.01 0.01 0.00 0.00 0.00 0.00 0.00 0.00 0.00 0.00 0.00 0.00 0.00 0.00 0.00 0.00 0.00 0.00 0.00 0.00 0.00 0.00 0.00 0.00 0.00 0.00 0.00 0.00
0.00 0.01 0.04 0.08 0.07 0.11 0.09 0.09 0.11 0.17 0.16 0.06 0.05 0.06 0.05 0.04 0.03 0.03 0.01 0.00 0.00 0.00 0.00 0.00 0.00 0.00 0.00 0.00 0.00 0.00 0.00 0.00 0.00 0.00 0.00 0.00 0.00 0.00 0.00 0.00 0.00 0.00 0.00 0.00
0.00 0.00 0.03 0.07 0.10 0.12 0.12 0.11 0.12 0.14 0.15 0.06 0.04 0.04 0.06 0.05 0.03 0.01 0.01 0.00 0.00 0.00 0.00 0.00 0.00 0.00 0.00 0.00 0.00 0.00 0.00 0.00 0.00 0.00 0.00 0.00 0.00 0.00 0.00 0.00 0.00 0.00 0.00 0.00
0.00 0.00 0.02 0.06 0.08 0.11 0.11 0.11 0.12 0.15 0.16 0.10 0.03 0.04 0.04 0.03 0.03 0.02 0.01 0.01 0.00 0.00 0.00 0.00 0.00 0.00 0.00 0.00 0.00 0.00 0.00 0.00 0.00 0.00 0.00 0.00 0.00 0.00 0.00 0.00 0.00 0.00 0.00 0.00
0.00 0.00 0.02 0.03 0.05 0.09 0.08 0.09 0.09 0.12 0.12 0.06 0.03 0.03 0.03 0.04 0.05 0.05 0.01 0.01 0.01 0.00 0.00 0.00 0.00 0.00 0.00 0.00 0.00 0.00 0.00 0.00 0.00 0.00 0.00 0.00 0.00 0.00 0.00 0.00 0.00 0.00 0.00 0.00
0.01 0.01 0.03 0.02 0.04 0.08 0.09 0.09 0.08 0.10 0.12 0.08 0.03 0.02 0.03 0.05 0.07 0.07 0.03 0.03 0.01 0.00 0.00 0.00 0.00 0.00 0.00 0.00 0.00 0.00 0.00 0.00 0.00 0.00 0.00 0.00 0.00 0.00 0.00 0.00 0.00 0.00 0.00 0.00
0.01 0.02 0.05 0.04 0.06 0.05 0.06 0.07 0.05 0.07 0.10 0.12 0.04 0.04 0.05 0.05 0.05 0.03 0.02 0.01 0.01 0.00 0.00 0.00 0.00 0.00 0.00 0.00 0.00 0.00 0.00 0.00 0.00 0.00 0.00 0.00 0.00 0.00 0.00 0.00 0.00 0.00 0.00 0.00
0.02 0.03 0.05 0.07 0.09 0.09 0.09 0.07 0.07 0.11 0.16 0.15 0.14 0.08 0.03 0.03 0.02 0.01 0.01 0.00 0.01 0.00 0.00 0.00 0.00 0.00 0.00 0.00 0.00 0.00 0.00 0.00 0.00 0.00 0.00 0.00 0.00 0.00 0.00 0.00 0.00 0.00 0.00 0.00
0.02 0.05 0.06 0.09 0.10 0.10 0.09 0.09 0.08 0.11 0.16 0.15 0.06 0.01 0.02 0.02 0.03 0.02 0.01 0.01 0.00 0.00 0.00 0.00 0.00 0.00 0.00 0.00 0.00 0.00 0.00 0.00 0.00 0.00 0.00 0.00 0.00 0.00 0.00 0.00 0.00 0.00 0.00 0.00
0.03 0.06 0.09 0.14 0.14 0.13 0.12 0.17 0.13 0.09 0.11 0.08 0.03 0.02 0.01 0.03 0.04 0.03 0.02 0.01 0.00 0.00 0.00 0.00 0.00 0.00 0.00 0.00 0.00 0.00 0.00 0.00 0.00 0.00 0.00 0.00 0.00 0.00 0.00 0.00 0.00 0.00 0.00 0.00
0.04 0.06 0.07 0.10 0.12 0.15 0.24 0.23 0.12 0.07 0.06 0.09 0.10 0.06 0.03 0.02 0.02 0.01 0.01 0.00 0.00 0.00 0.00 0.00 0.00 0.00 0.00 0.00 0.00 0.00 0.00 0.00 0.00 0.00 0.00 0.00 0.00 0.00 0.00 0.00 0.00 0.00 0.00 0.00
0.07 0.12 0.14 0.11 0.12 0.16 0.25 0.18 0.06 0.05 0.10 0.17 0.17 0.08 0.03 0.01 0.00 0.00 0.00 0.00 0.00 0.00 0.00 0.00 0.00 0.00 0.00 0.00 0.00 0.00 0.00 0.00 0.00 0.00 0.00 0.00 0.00 0.00 0.00 0.00 0.00 0.00 0.00 0.00
0.13 0.18 0.17 0.16 0.20 0.25 0.17 0.16 0.15 0.11 0.13 0.15 0.13 0.03 0.01 0.01 0.02 0.01 0.00 0.00 0.00 0.00 0.00 0.00 0.00 0.00 0.00 0.00 0.00 0.00 0.00 0.00 0.00 0.00 0.00 0.00 0.00 0.00 0.00 0.00 0.00 0.00 0.00 0.00
0.17 0.17 0.16 0.17 0.21 0.17 0.13 0.15 0.11 0.14 0.13 0.12 0.05 0.01 0.01 0.01 0.01 0.01 0.00 0.00 0.00 0.00 0.00 0.00 0.00 0.00 0.00 0.00 0.00 0.00 0.00 0.00 0.00 0.00 0.00 0.00 0.00 0.00 0.00 0.00 0.00 0.00 0.00 0.00
0.08 0.14 0.21 0.19 0.13 0.10 0.14 0.17 0.15 0.12 0.07 0.05 0.02 0.01 0.02 0.02 0.02 0.01 0.00 0.00 0.00 0.00 0.00 0.00 0.00 0.00 0.00 0.00 0.00 0.00 0.00 0.00 0.00 0.00 0.00 0.00 0.00 0.00 0.00 0.00 0.00 0.00 0.00 0.00
0.08 0.16 0.16 0.15 0.11 0.10 0.11 0.12 0.10 0.06 0.04 0.02 0.01 0.01 0.02 0.03 0.01 0.00 0.00 0.00 0.00 0.00 0.00 0.00 0.00 0.00 0.00 0.00 0.00 0.00 0.00 0.00 0.00 0.00 0.00 0.00 0.00 0.00 0.00 0.00 0.00 0.00 0.00 0.00
0.09 0.15 0.16 0.13 0.09 0.06 0.07 0.06 0.04 0.02 0.00 0.00 0.00 0.01 0.02 0.03 0.00 0.00 0.00 0.00 0.00 0.00 0.00 0.00 0.00 0.00 0.00 0.00 0.00 0.00 0.00 0.00 0.00 0.00 0.00 0.00 0.00 0.00 0.00 0.00 0.00 0.00 0.00 0.00
0.24 0.30 0.22 0.13 0.06 0.03 0.02 0.01 0.00 0.01 0.01 0.01 0.02 0.02 0.03 0.02 0.00 0.00 0.00 0.00 0.00 0.00 0.00 0.00 0.00 0.00 0.00 0.00 0.00 0.00 0.00 0.00 0.00 0.00 0.00 0.00 0.00 0.00 0.00 0.00 0.00 0.00 0.00 0.00
0.29 0.21 0.15 0.06 0.02 0.00 0.00 0.00 0.00 0.00 0.00 0.01 0.02 0.04 0.02 0.00 0.00 0.00 0.00 0.00 0.00 0.00 0.00 0.00 0.00 0.00 0.00 0.00 0.00 0.00 0.00 0.00 0.00 0.00 0.00 0.00 0.00 0.00 0.00 0.00 0.00 0.00 0.00 0.00
0.22 0.13 0.07 0.02 0.00 0.00 0.00 0.00 0.01 0.02 0.01 0.02 0.03 0.02 0.01 0.00 0.00 0.00 0.00 0.00 0.00 0.00 0.00 0.00 0.00 0.00 0.00 0.00 0.00 0.00 0.00 0.00 0.00 0.00 0.00 0.00 0.00 0.00 0.00 0.00 0.00 0.00 0.00 0.00
0.17 0.09 0.02 0.00 0.00 0.01 0.03 0.04 0.05 0.02 0.02 0.02 0.01 0.00 0.00 0.00 0.00 0.00 0.00 0.00 0.00 0.00 0.00 0.00 0.00 0.00 0.00 0.00 0.00 0.00 0.00 0.00 0.00 0.00 0.00 0.00 0.00 0.00 0.00 0.00 0.00 0.00 0.00 0.00
0.08 0.01 0.00 0.00 0.02 0.04 0.05 0.04 0.03 0.02 0.01 0.01 0.01 0.00 0.00 0.00 0.00 0.00 0.00 0.00 0.00 0.00 0.00 0.00 0.00 0.00 0.00 0.00 0.00 0.00 0.00 0.00 0.00 0.00 0.00 0.00 0.00 0.00 0.00 0.00 0.00 0.00 0.00 0.00
MSLP
1023.71 1023.93 1024.12 1024.09 1024.08 1023.60 1023.49 1024.25 1024.35 1023.67 1023.57 1024.39 1024.73 1025.01 1024.65 1024.62 1025.12 1025.47 1025.59 1025.79 1026.00 1026.27 1026.62 1027.26 1027.83 1028.15 1028.69 1029.20 1029.70 1030.75 1031.01 1031.94 1032.18 1031.80 1031.93 1032.04 1032.46 1033.29 1034.40 1036.03 1037.25 1038.46 1039.09 1036.77
1022.90 1023.12 1023.45 1023.74 1023.95 1023.69 1024.38 1024.78 1024.50 1023.91 1023.83 1024.58 1025.13 1025.28 1025.35 1025.50 1025.39 1025.57 1025.76 1025.86 1025.71 1026.33 1027.00 1027.55 1027.80 1028.41 1028.92 1029.38 1030.07 1030.60 1031.29 1032.15 1032.55 1032.45 1032.99 1032.88 1032.69 1032.94 1033.87 1034.84 1035.99 1036.80 1038.23 1035.62
1022.33 1022.54 1022.53 1022.70 1023.86 1023.64 1023.51 1025.88 1025.41 1024.31 1024.15 1024.68 1024.88 1025.47 1025.36 1025.64 1025.71 1025.84 1025.84 1025.90 1026.24 1026.55 1026.91 1027.43 1027.85 1028.58 1029.27 1029.60 1030.20 1030.39 1031.06 1032.13 1032.28 1032.15 1032.07 1032.44 1032.85 1032.71 1033.45 1034.13 1035.14 1035.00 1034.72 1033.85
1022.02 1021.89 1022.01 1022.66 1023.18 1023.78 1023.56 1025.57 1025.41 1025.63 1025.02 1024.50 1025.13 1025.94 1025.86 1025.61 1025.79 1026.05 1026.18 1026.32 1026.14 1026.35 1027.06 1027.54 1028.11 1028.84 1029.63 1030.14 1030.16 1030.82 1031.64 1032.19 1032.25 1031.99 1031.92 1032.17 1032.16 1032.16 1032.69 1033.13 1032.97 1033.75 1032.62 1033.44
1021.89 1021.74 1021.74 1022.29 1022.42 1023.05 1024.12 1024.86 1025.49 1025.57 1025.32 1025.13 1025.28 1025.45 1025.58 1025.71 1025.62 1026.03 1026.24 1026.19 1025.67 1026.30 1026.59 1026.76 1027.59 1028.47 1029.32 1029.71 1030.73 1031.23 1032.03 1032.16 1032.36 1032.00 1031.48 1031.76 1031.59 1031.24 1031.54 1031.67 1031.96 1032.04 1032.35 1032.54
1021.31 1021.16 1021.33 1021.98 1022.39 1022.18 1023.63 1024.57 1024.61 1024.55 1024.84 1025.06 1024.94 1024.76 1024.84 1025.19 1025.64 1025.62 1025.91 1025.73 1026.15 1026.65 1026.75 1027.19 1027.80 1028.23 1028.69 1029.19 1030.28 1031.23 1031.99 1032.62 1033.06 1032.35 1032.05 1032.04 1031.33 1030.55 1030.49 1030.63 1030.76 1031.27 1032.28 1032.32
1021.40 1020.76 1020.47 1021.00 1021.64 1021.88 1022.61 1023.05 1023.57 1024.62 1024.15 1024.32 1023.82 1024.02 1024.22 1024.73 1025.55 1025.85 1025.87 1026.39 1026.34 1027.25 1027.15 1027.66 1028.24 1028.85 1029.02 1029.51 1030.26 1030.74 1031.80 1032.92 1033.51 1033.11 1032.70 1032.19 1030.43 1030.35 1030.41 1030.64 1030.82 1031.31 1031.91 1032.45
1020.95 1020.62 1020.24 1020.38 1020.53 1021.40 1022.23 1022.92 1022.85 1023.02 1023.25 1023.46 1023.67 1023.80 1024.12 1024.44 1025.03 1026.19 1026.49 1026.79 1026.93 1026.93 1027.43 1028.11 1028.76 1029.38 1029.47 1029.61 1030.25 1030.93 1031.45 1032.58 1033.42 1033.67 1033.43 1031.34 1030.75 1030.78 1031.03 1031.26 1031.38 1031.67 1032.32 1032.86
1020.68 1020.36 1019.79 1019.70 1020.04 1020.80 1021.44 1022.12 1022.80 1022.42 1022.50 1021.98 1022.13 1023.13 1023.70 1024.13 1024.87 1026.20 1026.96 1027.39 1027.64 1027.57 1027.65 1028.11 1028.45 1028.68 1028.72 1030.11 1030.97 1031.35 1032.01 1032.49 1033.59 1034.08 1033.91 1032.38 1030.75 1031.07 1031.40 1031.93 1032.20 1032.08 1032.72 1033.25
1019.79 1019.74 1019.54 1019.21 1019.42 1020.05 1021.03 1021.50 1021.64 1022.57 1022.57 1022.53 1022.36 1022.29 1022.78 1023.07 1023.88 1025.45 1026.55 1027.34 1027.95 1028.04 1028.06 1028.42 1028.57 1028.63 1028.58 1029.79 1030.88 1031.95 1032.85 1033.36 1033.39 1033.68 1033.57 1031.72 1030.66 1031.15 1031.80 1032.73 1032.66 1032.54 1033.00 1033.45
1018.93 1018.81 1018.83 1018.66 1018.99 1019.55 1020.36 1020.90 1020.90 1021.65 1022.05 1022.73 1022.90 1022.48 1022.86 1022.75 1023.37 1024.17 1025.64 1026.95 1027.58 1028.05 1028.46 1028.39 1028.38 1028.68 1029.14 1029.65 1030.21 1030.88 1032.17 1032.97 1033.45 1033.58 1033.44 1031.51 1030.70 1031.80 1032.22 1032.00 1032.12 1032.68 1033.11 1033.47
1018.07 1017.77 1017.86 1017.97 1018.63 1019.12 1019.72 1020.82 1021.07 1021.36 1022.25 1023.32 1023.54 1023.25 1023.20 1022.80 1022.79 1023.35 1024.40 1024.67 1025.06 1025.90 1026.65 1027.97 1028.55 1029.03 1029.95 1030.12 1030.81 1030.65 1031.31 1030.98 1031.84 1031.91 1030.70 1029.82 1030.09 1030.26 1030.90 1031.47 1032.13 1032.79 1033.37 1033.39
1017.41 1017.12 1016.73 1017.19 1017.67 1018.50 1019.38 1020.12 1020.47 1021.51 1022.65 1023.93 1024.03 1023.65 1023.87 1023.52 1023.11 1022.79 1023.79 1024.85 1024.62 1025.38 1025.59 1026.82 1028.27 1029.15 1029.64 1030.43 1031.11 1031.03 1030.83 1030.76 1031.37 1031.37 1030.41 1030.15 1030.21 1030.50 1030.87 1031.40 1032.02 1032.52 1032.98 1033.47
1016.58 1016.27 1015.95 1016.20 1016.99 1018.05 1019.39 1019.79 1020.07 1019.95 1021.33 1022.85 1023.97 1023.89 1023.38 1023.48 1023.18 1023.05 1023.16 1023.50 1024.46 1025.25 1026.05 1027.19 1028.10 1029.08 1029.24 1030.01 1030.55 1031.22 1030.94 1031.16 1031.09 1031.08 1030.79 1030.79 1030.69 1030.76 1031.09 1031.61 1031.95 1032.43 1032.85 1033.19
1015.83 1015.45 1015.12 1015.20 1016.49 1017.94 1019.38 1019.66 1020.15 1019.90 1020.77 1022.64 1023.99 1023.97 1023.42 1023.12 1023.21 1023.27 1023.22 1023.43 1024.17 1025.59 1026.56 1027.44 1028.02 1028.52 1029.66 1030.66 1031.10 1030.94 1030.12 1029.87 1030.51 1030.44 1029.97 1030.53 1030.73 1030.66 1031.19 1031.75 1032.07 1032.44 1032.92 1033.11
1014.98 1014.68 1014.45 1014.59 1016.39 1018.24 1019.34 1020.38 1020.38 1020.29 1020.93 1022.37 1024.46 1024.81 1024.25 1023.40 1023.17 1023.54 1023.51 1023.74 1024.40 1025.30 1026.20 1027.26 1027.87 1028.39 1029.36 1030.80 1031.16 1028.70 1028.68 1029.14 1029.56 1029.71 1029.89 1030.41 1030.66 1031.03 1031.27 1031.83 1032.04 1032.18 1032.51 1032.73
1014.00 1013.94 1014.02 1015.08 1017.12 1018.45 1019.27 1019.26 1019.30 1019.93 1020.73 1022.28 1024.40 1024.82 1024.71 1024.35 1023.88 1024.17 1024.36 1024.04 1024.59 1025.35 1026.35 1027.15 1028.01 1028.79 1029.46 1030.38 1029.96 1027.79 1027.99 1028.75 1029.50 1029.50 1029.98 1030.77 1031.04 1031.20 1031.36 1031.54 1031.80 1032.11 1032.45 1032.59
1013.59 1013.85 1015.02 1016.68 1017.88 1018.95 1019.09 1020.09 1019.76 1020.05 1020.71 1021.85 1023.79 1025.21 1025.26 1024.67 1024.18 1024.51 1024.64 1024.74 1025.08 1025.84 1026.43 1027.39 1028.25 1029.25 1029.66 1029.40 1027.30 1027.19 1027.92 1028.82 1029.51 1029.76 1029.93 1030.31 1030.65 1031.15 1031.38 1031.60 1031.98 1032.36 1032.57 1032.60
1014.09 1015.39 1016.46 1017.67 1018.59 1019.44 1020.14 1020.04 1020.30 1020.73 1021.23 1021.91 1023.33 1024.68 1025.05 1024.87 1024.39 1024.48 1024.94 1024.99 1025.91 1026.47 1027.04 1027.74 1028.35 1028.89 1028.56 1026.17 1026.21 1026.90 1027.58 1028.18 1028.79 1029.63 1030.18 1030.62 1031.01 1031.26 1031.51 1031.84 1032.30 1032.63 1032.69 1032.64
1015.09 1015.94 1017.48 1018.86 1019.36 1019.13 1019.42 1020.64 1020.93 1021.16 1021.71 1021.92 1022.79 1023.53 1024.46 1024.96 1024.36 1024.75 1025.31 1025.84 1026.46 1027.32 1027.85 1028.13 1028.38 1027.32 1025.23 1025.01 1025.47 1025.87 1026.79 1027.78 1028.72 1029.89 1030.63 1031.10 1031.26 1031.37 1031.70 1032.07 1032.31 1032.58 1032.72 1032.72
1015.60 1017.05 1018.59 1019.48 1019.55 1019.47 1020.39 1020.95 1021.10 1021.35 1021.92 1022.18 1022.68 1023.15 1023.71 1024.95 1024.69 1024.80 1025.34 1026.08 1027.03 1027.75 1028.33 1028.74 1028.43 1026.75 1024.51 1024.12 1024.88 1025.57 1026.41 1027.38 1028.31 1028.87 1029.50 1030.01 1030.61 1031.41 1031.87 1032.20 1032.33 1032.58 1032.70 1032.69
1015.64 1016.65 1018.62 1019.59 1019.94 1020.27 1020.99 1020.94 1021.05 1021.29 1021.46 1022.38 1022.71 1023.36 1023.95 1024.42 1024.86 1025.19 1026.08 1026.55 1027.32 1028.07 1028.43 1028.78 1027.76 1024.57 1023.80 1024.38 1024.92 1025.68 1026.41 1027.43 1028.50 1029.05 1029.63 1030.17 1030.72 1031.19 1031.63 1032.02 1032.29 1032.60 1032.50 1032.40
1015.77 1016.92 1018.45 1019.16 1020.11 1020.67 1020.83 1020.66 1020.47 1020.60 1021.01 1021.94 1022.54 1023.44 1023.93 1024.69 1025.18 1025.59 1026.20 1026.81 1027.85 1028.16 1028.69 1027.59 1025.04 1023.63 1023.83 1024.39 1025.16 1026.11 1026.85 1027.69 1028.53 1029.29 1029.80 1030.38 1030.84 1031.15 1031.61 1031.90 1032.03 1032.19 1032.43 1032.34
1015.47 1016.75 1018.37 1018.95 1019.59 1019.47 1019.11 1019.15 1019.13 1019.63 1019.98 1021.18 1022.28 1023.05 1023.69 1024.49 1025.12 1025.69 1026.41 1028.09 1028.22 1028.39 1027.84 1025.74 1023.76 1023.27 1023.71 1024.52 1025.37 1026.37 1027.19 1027.91 1028.72 1029.42 1030.08 1030.59 1030.98 1031.27 1031.37 1031.62 1031.87 1032.19 1032.65 1032.24
1015.73 1016.35 1017.32 1018.26 1018.57 1019.00 1019.26 1019.34 1019.68 1020.06 1020.39 1021.10 1022.24 1023.12 1023.74 1024.50 1025.24 1025.80 1027.09 1028.17 1027.58 1026.60 1024.79 1023.53 1022.70 1023.22 1023.86 1024.86 1025.82 1026.56 1027.36 1028.31 1029.19 1029.79 1030.38 1030.78 1031.15 1031.45 1031.68 1031.50 1031.68 1031.89 1031.99 1032.06
1016.65 1017.36 1018.02 1018.45 1018.83 1019.26 1019.39 1019.45 1019.79 1020.15 1020.78 1021.49 1021.93 1022.91 1023.78 1024.15 1024.39 1025.31 1025.33 1025.75 1024.61 1023.27 1022.78 1022.60 1023.27 1023.83 1024.26 1025.07 1025.94 1026.51 1027.33 1028.29 1029.19 1029.94 1030.52 1030.95 1031.27 1031.44 1031.41 1031.32 1031.36 1031.41 1031.55 1031.54
1017.79 1018.47 1018.25 1018.39 1018.82 1019.03 1019.37 1019.58 1020.08 1020.48 1020.80 1021.10 1021.67 1022.43 1022.97 1023.88 1024.06 1024.10 1024.01 1023.20 1021.95 1021.85 1022.43 1023.04 1023.42 1024.01 1024.62 1025.40 1026.03 1026.88 1027.71 1028.55 1029.36 1030.07 1030.61 1031.11 1030.95 1031.02 1031.19 1031.24 1030.80 1030.71 1030.64 1030.50
Thickness
5587 5585 5582 5582 5580 5583 5583 5576 5582 5580 5578 5570 5547 5555 5560 5560 5547 5542 5537 5532 5529 5522 5511 5506 5496 5493 5482 5467 5458 5444 5436 5410 5397 5410 5404 5395 5385 5364 5349 5322 5293 5287 5247 5268
5582 5579 5576 5573 5570 5572 5565 5565 5561 5567 5565 5561 5550 5540 5542 5539 5537 5533 5528 5523 5521 5512 5504 5500 5489 5476 5466 5457 5446 5431 5422 5397 5381 5397 5385 5359 5356 5362 5348 5331 5305 5294 5242 5252
5574 5570 5568 5568 5558 5560 5559 5539 5548 5557 5549 5538 5546 5530 5534 5531 5521 5520 5519 5514 5508 5500 5493 5485 5480 5461 5453 5446 5438 5440 5424 5396 5392 5400 5385 5369 5358 5358 5332 5316 5285 5283 5293 5294
5561 5561 5558 5553 5551 5548 5545 5525 5532 5525 5544 5546 5531 5517 5519 5518 5514 5503 5501 5498 5496 5494 5481 5472 5464 5450 5437 5431 5431 5417 5404 5383 5375 5379 5368 5358 5356 5354 5330 5315 5309 5278 5305 5260
5545 5548 5546 5542 5544 5537 5526 5522 5516 5511 5509 5512 5514 5512 5511 5507 5502 5490 5487 5485 5489 5479 5479 5476 5458 5444 5428 5424 5409 5397 5385 5380 5374 5370 5369 5360 5349 5349 5330 5320 5311 5287 5270 5259
5535 5536 5536 5530 5529 5529 5515 5505 5505 5511 5509 5497 5502 5505 5508 5502 5492 5489 5484 5479 5472 5466 5465 5455 5441 5434 5425 5419 5401 5384 5370 5362 5347 5347 5354 5342 5327 5324 5332 5307 5303 5286 5254 5240
5516 5521 5524 5523 5519 5516 5510 5505 5501 5493 5510 5496 5504 5493 5490 5490 5481 5482 5472 5466 5466 5447 5441 5433 5424 5413 5411 5403 5390 5384 5361 5344 5334 5329 5332 5305 5328 5324 5318 5308 5288 5272 5254 5231
5502 5506 5509 5512 5510 5503 5498 5490 5493 5491 5497 5492 5488 5482 5478 5476 5469 5457 5454 5447 5441 5436 5430 5419 5411 5398 5397 5391 5380 5367 5359 5329 5327 5319 5299 5330 5304 5313 5298 5289 5283 5250 5235 5213
5484 5488 5494 5498 5497 5490 5487 5482 5475 5480 5486 5493 5491 5479 5475 5468 5458 5446 5433 5429 5423 5421 5421 5421 5410 5412 5405 5374 5360 5355 5345 5333 5309 5304 5286 5300 5299 5292 5279 5265 5245 5236 5221 5203
5470 5471 5475 5481 5482 5478 5473 5471 5467 5461 5466 5465 5472 5474 5467 5462 5452 5432 5425 5417 5410 5406 5404 5409 5402 5398 5395 5368 5352 5332 5322 5308 5308 5299 5281 5287 5294 5278 5266 5251 5244 5224 5209 5190
5457 5459 5460 5464 5464 5463 5458 5459 5457 5453 5453 5445 5445 5452 5453 5455 5443 5430 5419 5409 5399 5390 5385 5391 5390 5372 5367 5350 5348 5333 5311 5297 5289 5289 5271 5269 5282 5262 5248 5238 5224 5211 5187 5178
5440 5445 5447 5449 5444 5444 5443 5441 5440 5438 5433 5426 5424 5430 5431 5435 5437 5430 5415 5418 5407 5400 5388 5365 5361 5366 5330 5336 5337 5333 5314 5311 5292 5290 5296 5292 5276 5268 5241 5222 5203 5189 5171 5168
5418 5423 5432 5432 5432 5428 5425 5426 5427 5418 5411 5401 5406 5412 5409 5414 5418 5419 5405 5398 5399 5389 5383 5369 5355 5350 5342 5322 5317 5305 5315 5296 5285 5290 5287 5277 5264 5253 5237 5220 5199 5188 5170 5154
5406 5410 5415 5417 5414 5409 5407 5406 5407 5412 5407 5400 5391 5392 5397 5399 5402 5403 5401 5396 5386 5377 5369 5352 5349 5350 5334 5320 5314 5303 5295 5290 5282 5277 5276 5263 5253 5241 5224 5210 5196 5180 5165 5153
5395 5401 5406 5409 5403 5397 5391 5391 5389 5391 5396 5384 5373 5375 5382 5387 5388 5388 5387 5386 5379 5366 5356 5344 5344 5339 5316 5293 5291 5283 5291 5289 5276 5271 5275 5244 5235 5229 5215 5191 5183 5167 5150 5138
5388 5393 5397 5401 5388 5383 5374 5375 5376 5376 5375 5365 5356 5354 5361 5370 5375 5372 5375 5372 5365 5357 5348 5339 5330 5322 5300 5281 5286 5304 5291 5277 5269 5268 5248 5241 5233 5217 5204 5183 5172 5158 5142 5137
5382 5386 5388 5383 5373 5368 5367 5377 5375 5368 5365 5353 5336 5341 5343 5352 5358 5356 5355 5358 5354 5349 5339 5333 5319 5306 5287 5267 5282 5309 5298 5286 5269 5251 5242 5231 5220 5201 5189 5176 5162 5153 5143 5135
5373 5375 5371 5363 5359 5355 5358 5352 5356 5357 5356 5348 5331 5323 5332 5336 5342 5341 5341 5344 5340 5334 5328 5317 5303 5290 5279 5277 5302 5305 5290 5274 5262 5249 5238 5222 5207 5196 5183 5170 5155 5142 5135 5128
5361 5356 5351 5346 5343 5343 5341 5341 5341 5341 5341 5334 5322 5317 5327 5324 5330 5331 5331 5332 5321 5319 5309 5301 5297 5284 5283 5306 5296 5291 5276 5267 5256 5244 5230 5215 5202 5189 5175 5159 5143 5131 5125 5121
5345 5341 5333 5327 5329 5336 5336 5328 5326 5326 5323 5323 5324 5319 5315 5315 5322 5320 5317 5308 5307 5287 5295 5287 5280 5291 5308 5303 5295 5288 5276 5260 5245 5225 5215 5199 5189 5180 5159 5144 5132 5122 5115 5114
5333 5324 5317 5317 5320 5325 5319 5317 5320 5319 5317 5312 5314 5312 5310 5301 5312 5312 5306 5302 5285 5277 5286 5272 5268 5278 5303 5306 5295 5284 5270 5255 5239 5224 5207 5191 5176 5157 5144 5137 5130 5122 5115 5107
5328 5325 5313 5310 5314 5312 5310 5311 5310 5315 5324 5299 5308 5305 5301 5297 5297 5297 5288 5291 5277 5274 5271 5255 5261 5301 5309 5295 5286 5272 5259 5245 5229 5211 5199 5179 5167 5151 5139 5128 5123 5115 5111 5107
5323 5319 5311 5313 5306 5305 5299 5296 5304 5315 5308 5303 5300 5294 5290 5287 5287 5282 5282 5273 5269 5271 5247 5272 5292 5304 5299 5285 5275 5261 5249 5237 5223 5207 5191 5176 5160 5149 5136 5128 5121 5112 5106 5103
5326 5321 5311 5317 5305 5299 5315 5317 5323 5315 5314 5304 5297 5290 5292 5284 5282 5276 5276 5253 5254 5237 5243 5280 5291 5296 5288 5275 5265 5253 5241 5228 5213 5197 5182 5170 5157 5142 5134 5122 5111 5104 5099 5098
5325 5328 5339 5312 5306 5298 5296 5300 5304 5303 5304 5297 5289 5284 5284 5274 5269 5264 5249 5242 5248 5275 5290 5301 5295 5286 5280 5266 5255 5244 5234 5216 5197 5177 5167 5157 5143 5129 5122 5112 5104 5097 5093 5090
5309 5305 5303 5301 5304 5300 5300 5303 5301 5298 5292 5288 5288 5279 5275 5273 5270 5263 5271 5273 5283 5302 5295 5294 5277 5277 5270 5259 5246 5235 5216 5203 5187 5171 5156 5145 5130 5120 5113 5103 5098 5094 5090 5089
5297 5289 5299 5300 5302 5301 5296 5298 5293 5291 5291 5294 5287 5289 5287 5263 5268 5276 5279 5289 5306 5297 5289 5279 5278 5275 5261 5245 5235 5221 5204 5189 5174 5159 5144 5134 5119 5108 5106 5100 5098 5090 5090 5087